Weather Roundup
Issued by NWS

Home | Current Version | Previous Version | Text Only | Print | Product List | Glossary On
Versions: 1 2 3 4 5 6 7 8 9 10 11 12 13 14 15 16 17 18 19 20 21 22 23 24 25 26 27 28 29 30 31 32 33 34 35 36 37 38 39 40 41 42 43 44 45 46 47 48 49 50
124
NZUS93 KARX 240910
HRRWXR

CURRENT HOURLY OBSERVATIONS ACROSS
MUCH OF THE UPPER MISSISSIPPI VALLEY
NATIONAL WEATHER SERVICE LA CROSSE WI
400 AM CDT FRI MAR 24 2017


...SOUTHEAST MINNESOTA...


CITY           SKY/WX    TMP DP  RH WIND       PRES   REMARKS
ROCHESTER      RAIN      38  38 100 NE13      29.78F FOG     WCI  30
ROCHESTER/MAYO CLOUDY    38  39 100 SE7       29.83F WCI  33
WINONA         LGT RAIN  37  37 100 CALM      29.87S
AUSTIN         LGT RAIN  41  39  93 SE6       29.79F
ALBERT LEA     DRIZZLE   39  39 100 E6        29.78F WCI  35
DODGE CENTER   RAIN      37  36  93 E9        29.79F WCI  31
PRESTON        CLOUDY    39  38  93 NE3       29.81F FOG
OWATONNA       CLOUDY    37  36  93 E7        29.79F FOG     WCI  32
FARIBAULT      DRIZZLE   37  37 100 NE6       29.81F WCI  33
$$

...ELSEWHERE IN MINNESOTA...


CITY           SKY/WX    TMP DP  RH WIND       PRES   REMARKS
MINNEAPOLIS    CLOUDY    39  36  89 E6        29.83F WCI  35
INTNL FALLS    MOCLDY    33  31  92 CALM      29.88F FOG
DULUTH         DRIZZLE   33  32  96 N3        29.87F FOG
RED WING       LGT RAIN  39  36  87 E3        29.84S
REDWOOD FALLS  CLOUDY    38  36  92 N7        29.82R FOG     WCI  33
MANKATO        LGT RAIN  39  37  93 NE9       29.78F FOG     WCI  33
WORTHINGTON    MIX PCPN  37  36  96 N10       29.80R FOG     WCI  30
FAIRMONT       LGT RAIN  40  39  97 SE5       29.76S FOG
$$

...SOUTHWEST WISCONSIN...


CITY           SKY/WX    TMP DP  RH WIND       PRES   REMARKS
LA CROSSE      LGT RAIN  41  39  93 CALM      29.86R
PRAIRIE DU CHI PTCLDY    43  37  77 E6        29.80F
BOSCOBEL       CLOUDY    43  37  79 N3        29.83F
LONE ROCK      CLOUDY    41  36  82 E5        29.83F
PLATTEVILLE    CLOUDY    44  40  89 S10       29.82F
FORT MC COY    CLOUDY    39  38  97 NE3       29.88S
CAMP DOUGLAS   DRIZZLE   38  36  91 N6        29.88R WCI  34
MAUSTON-NEW LI CLOUDY    38  37  96 NW3       29.86R FOG
VIROQUA        CLOUDY    41  38  89 CALM      29.84R
WIS DELLS      CLOUDY    44  37  77 NW6       29.84R
$$

...ELSEWHERE IN WISCONSIN...


CITY           SKY/WX    TMP DP  RH WIND       PRES   REMARKS
MILWAUKEE      MOCLDY    48  38  68 SW10      29.86F
MADISON        MOCLDY    43  37  79 S7        29.84F
GREEN BAY      LGT RAIN  37  36  96 CALM      29.89F
EAU CLAIRE     LGT RAIN  39  37  92 CALM      29.84F FOG
BLACK RVR FLS  HVY RAIN  38  38 100 E7        29.86F WCI  33
MEDFORD        DRIZZLE   34  33  97 SE5       29.85F WCI  30
WAUSAU         LGT RAIN  34  34 100 NE3       29.88R FOG
WIS RAPIDS     LGT RAIN  38  38 100 N5        29.91R WCI  34
MARSHFIELD     RAIN      36  35  96 CALM      29.86F FOG
RICE LAKE      MIX PCPN  36  36  99 CALM      29.90R
$$

...NORTHEAST IOWA...


CITY           SKY/WX    TMP DP  RH WIND       PRES   REMARKS
WATERLOO       MOCLDY    43  39  86 S6        29.77F
DUBUQUE        CLOUDY    41  38  89 S12       29.81F
DECORAH        CLOUDY    41  39  93 NW13      29.83R
MASON CITY     CLOUDY    39  37  92 NE7       29.79F WCI  34
CHARLES CITY   CLOUDY    41  41 100 N7        29.81R
OELWEIN        CLOUDY    41  41 100 SE13      29.77F
$$

...ELSEWHERE IN IOWA...


CITY           SKY/WX    TMP DP  RH WIND       PRES   REMARKS
DES MOINES     MOCLDY    55  44  66 SE7       29.75S
IOWA CITY      CLOUDY    43  39  86 CALM      29.84F
FORT DODGE     MOCLDY    45  39  81 NW6       29.78R
MARSHALLTOWN   CLOUDY    47  41  80 SE12      29.75F
CEDAR RAPIDS   CLOUDY    45  42  89 S12       29.79F
$$

...NORTHERN ILLINOIS...


CITY           SKY/WX    TMP DP  RH WIND       PRES   REMARKS
CHICAGO-OHARE  CLOUDY    47  37  68 S9        29.91F
CHICAGO-MIDWAY CLOUDY    48  38  68 S8        29.94F
MOLINE         CLOUDY    54  44  69 S12       29.85F
ROCKFORD       CLOUDY    45  38  76 S9        29.90F
PEORIA         CLOUDY    46  41  82 S10       29.92F
$$

NOTE: "FAIR" INDICATES FEW OR NO CLOUDS BELOW 12,000 FEET WITH NO
SIGNIFICANT WEATHER AND/OR OBSTRUCTIONS TO VISIBILITY. WIND
SPEEDS ARE IN MILES-PER-HOUR.




USA.gov is the U.S. government's official web portal to all federal, state and local government web resources and services.